Wetbulb
41.54 37.30 34.20 37.82 38.55 39.50 38.39 36.44 36.59 38.68 42.33 41.56 41.86 42.22 45.22 47.73 53.27 53.07 56.04 56.82 55.75 59.80 65.99 69.06 66.54 63.85 62.42 62.09 61.83 60.48 59.14 59.43 59.26 58.81 58.22 55.77 56.13 56.13 54.98 55.38 56.68 56.42 56.13 55.89
38.29 34.95 39.83 41.69 41.01 39.34 38.19 36.00 35.39 39.04 41.44 40.82 40.50 41.08 44.49 46.72 48.01 54.61 55.32 55.85 54.65 54.88 62.29 64.00 63.82 62.59 61.51 60.40 60.77 59.46 59.76 59.63 59.71 59.70 56.42 55.96 55.70 55.51 54.78 54.98 55.64 55.94 55.67 55.47
36.76 39.77 43.81 41.81 40.11 38.89 37.00 35.32 35.87 36.94 40.66 40.08 39.82 37.64 41.46 45.83 47.79 49.91 52.58 55.32 55.06 55.27 61.08 62.33 62.40 62.02 61.54 59.73 59.96 59.37 59.28 59.91 58.82 58.38 57.39 56.16 55.96 55.77 54.42 53.65 54.19 55.37 55.98 56.07
37.58 41.37 41.53 40.44 39.77 39.73 35.20 40.27 40.99 39.84 36.08 33.15 38.90 31.10 36.61 41.45 44.97 47.09 51.28 49.68 52.29 53.62 61.15 61.93 61.65 61.81 61.52 60.79 60.81 59.70 59.21 59.63 58.46 58.87 57.52 57.83 55.40 53.82 54.21 53.89 54.59 54.72 55.77 55.76
39.08 40.56 40.27 39.79 40.74 42.41 39.33 43.23 40.72 40.25 36.12 32.55 34.44 31.09 35.15 38.86 41.45 44.19 49.00 51.98 52.88 52.42 59.58 61.15 61.82 62.32 62.37 62.25 60.18 59.94 59.04 59.30 59.06 59.19 58.99 57.83 54.27 53.64 53.74 54.65 54.80 53.82 54.30 54.97
41.00 44.00 43.35 43.01 44.92 44.36 44.70 41.33 38.37 35.12 33.26 28.15 37.00 34.07 31.73 35.97 40.42 42.20 46.53 50.54 51.07 52.73 57.45 61.18 62.56 62.46 61.67 61.10 60.24 59.70 58.77 58.59 58.86 59.52 58.33 58.18 57.54 55.27 54.57 54.08 54.18 53.34 53.28 54.50
39.03 39.67 42.82 45.24 41.03 42.74 41.05 35.82 29.32 27.51 26.72 28.92 34.55 32.03 34.38 40.47 41.97 43.39 44.21 47.15 49.05 52.24 53.65 58.96 60.04 60.21 59.71 58.84 59.32 59.54 58.58 57.48 58.34 58.97 58.88 58.18 57.56 56.63 55.30 54.80 54.19 53.12 53.38 53.38
32.52 33.53 40.47 44.47 41.64 38.17 37.34 36.62 30.03 25.57 24.54 30.80 35.62 32.43 37.82 42.76 45.01 45.11 45.21 45.91 47.78 48.48 52.20 54.95 58.87 59.50 59.07 58.14 59.05 59.64 58.74 57.67 58.31 58.96 58.20 56.55 55.98 57.17 55.76 55.59 54.75 54.07 54.15 53.58
30.58 33.73 42.63 46.30 44.53 42.57 38.54 33.69 38.01 33.81 31.22 27.85 31.96 37.14 41.10 43.23 44.29 46.14 45.76 46.94 46.42 47.01 49.64 52.20 54.74 58.47 58.78 58.38 59.01 59.21 58.97 58.70 58.83 59.22 58.65 56.85 56.59 56.51 55.67 55.34 55.06 54.67 54.51 54.72
33.65 28.52 40.39 42.83 45.00 42.50 39.52 42.41 33.15 32.02 25.53 23.54 29.48 32.47 33.78 39.97 42.12 44.99 45.76 45.15 46.11 46.17 46.51 50.33 53.28 56.64 58.62 59.20 59.24 59.77 59.58 58.98 59.10 59.72 59.18 58.05 56.98 56.83 56.35 56.42 55.51 55.08 54.73 55.09
33.51 31.21 33.59 39.10 36.91 33.92 37.02 30.85 33.14 34.04 31.02 25.38 25.19 29.47 42.00 40.34 41.78 42.87 45.41 46.51 44.37 44.69 45.39 44.79 51.51 55.63 57.89 58.65 58.73 59.58 59.22 58.85 58.54 59.22 59.01 58.26 57.42 56.95 56.66 56.96 56.11 55.50 54.93 55.38
33.58 29.74 25.62 31.40 37.29 40.69 36.81 31.65 31.23 26.88 28.45 32.13 28.12 28.63 44.12 42.79 43.27 45.02 47.07 48.61 49.24 48.92 47.76 46.74 49.17 52.54 55.43 56.85 57.54 58.73 59.30 59.09 58.91 59.49 59.54 58.82 57.62 57.19 56.66 56.01 55.88 55.60 55.10 55.30
32.02 24.95 21.68 24.62 31.99 33.92 30.89 31.69 32.81 30.69 31.66 30.65 27.54 30.35 44.97 45.23 44.59 45.49 45.54 48.29 49.56 49.65 49.98 49.79 49.68 49.84 53.72 55.94 56.98 58.34 59.07 59.08 59.55 58.99 58.81 57.79 57.28 56.89 56.50 56.31 55.82 55.86 55.38 55.28
34.78 27.25 26.01 20.97 27.18 30.07 27.23 29.02 31.20 30.83 26.74 27.69 30.73 33.05 37.91 42.59 42.91 43.90 45.75 45.47 48.51 49.38 49.53 50.25 49.43 50.16 53.84 55.44 57.24 58.34 58.80 59.18 59.59 59.14 58.30 57.53 57.49 57.62 57.09 56.51 55.96 55.82 55.74 55.12
28.76 23.44 27.86 28.07 29.87 30.19 28.76 28.01 29.03 27.29 28.44 25.40 30.64 30.89 36.41 40.80 42.32 42.85 44.62 46.48 46.66 47.98 49.78 49.42 49.40 49.05 51.87 53.67 55.99 57.45 57.57 58.55 59.20 58.97 57.87 57.87 57.95 57.59 56.99 56.49 55.96 55.72 54.94 54.81
27.20 19.22 25.27 23.92 28.98 28.11 25.61 27.89 28.37 28.50 29.50 30.09 32.08 32.96 39.27 41.24 44.00 41.89 43.73 46.45 46.61 47.15 50.69 51.11 50.36 50.23 50.94 52.35 53.31 54.61 55.95 57.35 58.69 58.52 58.43 58.23 57.57 57.22 56.74 55.60 54.98 54.58 54.31 53.54
23.48 21.72 19.11 18.03 25.50 24.46 19.16 25.27 27.21 28.46 31.73 32.35 27.52 33.77 37.36 37.09 38.76 40.79 44.03 43.87 45.98 49.58 50.81 51.44 50.98 51.00 51.44 50.98 51.94 52.16 53.37 54.86 55.97 56.80 57.12 57.18 56.78 56.55 55.40 54.88 54.74 53.47 51.14 49.47
22.55 21.36 20.51 16.88 21.67 11.84 24.60 31.78 32.01 29.88 30.99 32.32 32.79 35.57 37.58 36.85 40.01 44.17 45.96 45.09 44.33 46.53 51.11 51.74 50.00 51.83 52.50 52.30 51.98 53.37 54.21 52.79 53.97 54.19 55.05 55.62 55.72 54.56 54.09 53.30 51.03 48.26 47.36 46.92
28.38 23.05 16.88 11.69 15.02 21.92 26.77 29.63 28.87 26.81 27.41 33.07 32.22 34.09 36.58 40.54 41.88 40.52 46.54 46.29 46.50 44.74 48.74 48.89 49.74 49.82 50.62 51.89 53.00 53.35 52.93 52.84 52.94 52.90 53.94 54.80 54.66 52.61 50.49 48.28 47.07 45.93 45.37 44.48
28.63 26.78 20.32 17.70 8.69 10.38 24.64 31.75 34.40 32.88 22.02 33.82 34.04 33.68 33.59 38.51 33.64 36.42 44.84 45.00 47.19 48.31 47.62 50.44 49.71 50.62 50.26 51.59 52.94 53.24 51.57 51.22 50.38 51.45 50.46 50.11 50.07 48.86 47.21 46.29 45.72 44.54 44.33 44.05
23.92 23.73 20.16 20.13 16.11 19.87 30.22 34.35 36.04 21.64 22.48 34.81 35.55 34.92 36.86 35.38 37.58 40.40 45.42 43.75 45.41 47.43 48.52 49.54 48.41 50.52 51.24 53.07 54.08 52.80 52.08 49.66 49.69 50.01 49.62 48.28 48.67 47.31 45.88 44.94 44.07 43.80 43.21 43.25
23.17 23.76 17.86 22.42 17.93 17.35 33.83 34.02 27.43 30.20 32.07 36.40 36.58 37.02 37.69 38.45 39.53 40.87 43.25 43.10 45.30 43.76 44.82 48.54 48.87 49.85 52.16 54.12 51.51 50.60 50.01 50.60 50.57 49.73 48.40 46.75 45.90 46.32 45.40 43.78 43.17 43.59 41.78 40.42
24.52 28.78 25.76 26.51 23.62 31.54 35.30 35.67 36.92 35.69 33.22 34.87 36.22 36.99 38.00 37.50 37.84 39.22 39.16 40.71 43.48 43.91 44.46 46.61 46.23 48.60 50.29 50.56 51.58 50.80 50.28 48.76 49.39 48.52 46.85 46.80 46.74 46.30 45.18 43.84 42.28 41.16 39.57 38.35
30.21 34.36 29.63 29.07 32.09 33.17 34.93 36.95 38.16 38.41 36.64 36.96 37.78 37.59 36.84 36.78 38.11 37.62 38.63 39.53 41.15 42.91 43.89 43.88 46.71 47.32 48.21 50.04 50.54 48.16 47.61 47.92 47.59 46.01 45.58 45.14 44.39 42.55 42.17 42.03 41.50 40.06 37.86 36.91
32.41 33.53 31.23 30.69 33.05 34.45 35.36 35.73 36.47 37.19 37.94 37.54 37.72 38.16 37.89 37.41 37.82 38.51 38.44 40.15 40.81 42.78 43.13 43.06 45.38 46.09 47.41 48.30 47.05 46.72 46.90 46.57 44.75 43.97 44.04 42.29 40.94 40.99 39.07 39.15 38.96 39.43 38.60 38.20
34.28 31.93 29.52 28.21 33.33 32.65 33.66 35.20 37.56 37.63 36.84 37.40 37.47 37.83 39.06 39.05 37.82 38.39 38.69 40.43 40.96 41.44 44.45 44.94 45.85 45.74 48.21 46.20 45.34 46.70 46.06 45.24 43.67 41.16 39.99 39.22 38.92 38.27 37.75 36.83 37.56 38.82 39.04 39.22
MSLP
1007.22 1007.94 1008.42 1008.77 1008.99 1008.84 1008.85 1008.78 1008.30 1007.11 1006.37 1006.25 1005.30 1004.66 1003.84 1003.42 1003.35 1004.26 1003.70 1004.27 1005.31 1005.66 1006.11 1006.36 1006.88 1007.58 1008.24 1008.88 1009.47 1009.92 1010.79 1011.80 1012.46 1013.26 1013.90 1014.96 1015.20 1015.50 1015.80 1015.93 1016.02 1016.29 1016.43 1016.75
1007.36 1007.54 1007.62 1007.61 1008.08 1008.40 1008.60 1008.56 1008.15 1007.19 1006.56 1006.55 1005.56 1004.77 1003.94 1003.19 1002.49 1002.50 1002.61 1003.98 1004.55 1005.74 1006.62 1006.70 1007.17 1007.46 1007.66 1008.26 1009.21 1009.77 1010.29 1011.24 1011.84 1012.31 1013.02 1013.59 1014.44 1015.34 1015.63 1015.88 1016.03 1016.20 1016.46 1016.82
1006.99 1006.75 1006.50 1007.19 1007.33 1007.78 1007.83 1008.07 1007.96 1007.66 1006.90 1006.50 1006.10 1005.06 1004.30 1003.12 1002.52 1002.06 1001.89 1002.57 1003.47 1004.04 1005.24 1006.26 1007.00 1007.04 1007.54 1008.11 1008.50 1009.01 1009.66 1010.57 1011.32 1011.95 1012.82 1013.71 1014.43 1015.36 1015.97 1016.19 1016.26 1016.26 1016.35 1016.57
1006.44 1006.02 1006.26 1006.34 1006.52 1006.84 1007.10 1006.95 1007.05 1007.38 1007.88 1007.27 1006.32 1005.73 1004.62 1003.29 1002.54 1002.06 1001.78 1002.14 1002.79 1003.84 1004.55 1005.18 1005.90 1006.79 1006.83 1006.97 1008.10 1008.87 1009.44 1010.11 1010.90 1011.46 1012.00 1012.56 1013.38 1014.84 1015.12 1015.47 1015.76 1016.04 1016.16 1016.34
1005.77 1005.52 1005.53 1005.46 1005.39 1005.78 1005.95 1006.01 1006.74 1007.16 1007.64 1007.44 1006.96 1006.78 1004.22 1003.54 1002.74 1001.80 1001.20 1001.02 1001.31 1002.29 1003.40 1004.30 1004.94 1005.33 1005.46 1006.64 1007.31 1008.19 1009.17 1009.97 1010.38 1010.75 1010.88 1011.78 1012.88 1013.84 1014.44 1015.12 1015.65 1016.02 1016.21 1016.22
1005.73 1004.87 1004.79 1004.60 1004.72 1004.99 1005.33 1005.88 1006.75 1007.31 1007.98 1008.17 1006.05 1006.14 1004.86 1004.06 1002.76 1001.79 1001.39 1000.79 1000.71 1001.68 1002.53 1003.29 1003.76 1004.21 1005.06 1006.09 1007.30 1008.24 1008.97 1009.50 1009.95 1010.02 1010.41 1011.18 1011.98 1013.02 1014.18 1015.09 1015.76 1016.12 1016.32 1016.53
1007.18 1005.98 1005.16 1004.79 1004.83 1004.91 1005.52 1006.61 1007.81 1008.59 1008.90 1007.38 1006.34 1006.30 1004.40 1003.04 1002.31 1001.47 1001.33 1000.78 1000.35 1000.81 1001.59 1002.21 1003.22 1004.22 1004.98 1005.74 1006.28 1007.60 1008.58 1008.94 1009.52 1009.44 1010.27 1010.72 1011.64 1012.31 1013.16 1014.23 1015.15 1015.96 1016.52 1016.75
1010.08 1008.09 1007.02 1006.62 1006.59 1005.92 1006.04 1006.68 1008.02 1008.36 1008.78 1007.53 1006.62 1005.31 1002.74 1002.28 1001.56 1001.18 1001.12 1000.95 1000.78 1000.59 1000.78 1001.62 1001.34 1002.45 1003.57 1004.54 1005.60 1006.33 1007.47 1008.18 1008.56 1008.89 1009.80 1010.49 1011.12 1012.12 1012.89 1013.65 1014.62 1015.31 1015.83 1016.30
1012.97 1010.71 1008.62 1007.96 1007.48 1007.15 1006.98 1007.36 1007.23 1008.08 1008.60 1008.45 1007.23 1004.68 1003.06 1002.48 1002.62 1002.39 1001.84 1001.42 1001.04 1000.62 1000.34 1000.48 1001.12 1002.17 1002.60 1003.40 1004.22 1004.97 1006.29 1007.08 1007.67 1008.17 1009.47 1010.47 1010.98 1011.86 1012.77 1013.52 1014.16 1014.94 1015.42 1016.01
1014.91 1013.67 1010.79 1009.20 1008.24 1008.43 1008.98 1009.24 1009.11 1009.31 1009.61 1009.04 1007.87 1006.35 1005.44 1004.77 1004.42 1003.77 1003.06 1002.45 1001.36 1000.62 1000.11 999.84 1000.00 1000.62 1001.54 1002.52 1003.15 1003.98 1005.08 1005.64 1006.51 1007.92 1009.12 1010.14 1011.18 1011.93 1012.66 1013.34 1014.14 1014.86 1015.31 1015.90
1015.90 1015.34 1013.03 1011.50 1011.28 1011.49 1010.89 1012.18 1012.02 1011.34 1010.64 1009.85 1009.18 1007.99 1007.48 1007.04 1006.20 1005.40 1004.69 1003.73 1002.92 1001.58 1000.76 1000.19 999.88 999.59 1000.32 1001.62 1002.70 1003.54 1004.64 1005.46 1006.49 1007.66 1008.91 1010.03 1011.10 1011.85 1012.53 1013.13 1013.88 1014.57 1015.12 1015.60
1016.68 1016.50 1015.79 1014.45 1013.60 1012.83 1013.14 1014.48 1014.47 1014.07 1012.82 1011.82 1010.37 1009.24 1008.12 1007.39 1006.71 1005.87 1005.33 1004.58 1003.46 1002.68 1001.93 1000.84 1000.16 1000.55 1001.28 1001.92 1002.71 1003.08 1004.24 1005.18 1006.04 1007.27 1008.38 1009.51 1010.70 1011.65 1012.50 1013.26 1013.78 1014.33 1014.81 1015.26
1017.44 1017.56 1017.25 1015.87 1015.38 1014.95 1015.42 1015.90 1015.95 1015.50 1014.68 1013.06 1011.72 1009.39 1008.11 1007.40 1006.79 1006.45 1005.90 1005.24 1004.31 1003.60 1003.01 1002.21 1001.52 1001.82 1002.14 1002.63 1003.30 1003.79 1004.36 1005.20 1006.13 1007.30 1008.32 1009.42 1010.50 1011.32 1012.12 1012.86 1013.42 1013.83 1014.27 1014.82
1017.95 1018.81 1018.96 1018.69 1018.16 1018.00 1017.12 1017.00 1016.96 1016.78 1016.17 1014.44 1012.24 1010.48 1009.12 1008.23 1007.75 1007.47 1006.77 1005.78 1005.22 1004.48 1003.82 1003.43 1003.41 1003.22 1003.11 1003.06 1003.38 1003.94 1004.74 1005.39 1006.29 1007.38 1008.18 1009.18 1010.06 1010.73 1011.47 1012.31 1012.86 1013.30 1013.71 1014.34
1018.81 1019.68 1019.61 1019.38 1018.96 1018.47 1017.98 1017.38 1016.99 1016.62 1016.04 1015.36 1012.15 1011.36 1010.81 1009.42 1008.60 1008.53 1008.04 1007.22 1005.98 1005.35 1004.63 1004.14 1004.33 1004.36 1004.04 1003.95 1004.12 1004.62 1005.26 1005.76 1006.37 1007.38 1008.30 1008.82 1009.39 1010.31 1011.12 1011.79 1012.38 1012.97 1013.77 1014.37
1019.52 1020.08 1020.10 1019.52 1019.09 1018.78 1017.99 1017.02 1016.53 1015.88 1015.18 1013.99 1012.93 1011.99 1010.73 1009.81 1009.19 1008.84 1008.35 1007.81 1006.99 1006.40 1005.35 1005.20 1004.72 1005.19 1005.24 1005.03 1004.92 1005.24 1005.59 1006.30 1006.83 1007.21 1007.61 1008.17 1009.10 1009.83 1010.56 1011.34 1012.18 1013.23 1014.01 1014.63
1019.86 1020.41 1021.03 1020.10 1019.32 1018.95 1017.84 1016.14 1015.32 1014.41 1013.56 1013.07 1012.32 1011.60 1011.30 1010.78 1010.04 1009.53 1008.88 1008.26 1007.29 1006.98 1006.00 1005.86 1006.04 1005.88 1006.19 1005.82 1005.56 1005.61 1005.76 1006.32 1006.78 1007.20 1007.50 1008.08 1008.76 1009.56 1010.46 1011.44 1012.54 1013.35 1014.15 1014.52
1019.56 1020.68 1021.25 1020.76 1019.99 1018.87 1015.84 1014.81 1014.50 1014.22 1013.66 1013.14 1012.13 1011.68 1011.39 1011.32 1010.54 1010.10 1009.36 1008.46 1008.02 1007.38 1006.96 1007.00 1006.90 1006.97 1007.30 1006.98 1006.46 1005.93 1005.53 1005.55 1006.11 1007.00 1007.59 1008.59 1009.45 1010.21 1010.93 1011.84 1012.75 1013.53 1013.98 1014.26
1018.64 1020.07 1021.04 1021.15 1020.43 1017.97 1015.16 1014.41 1014.13 1013.77 1013.13 1012.66 1012.08 1011.55 1011.28 1010.97 1010.80 1010.01 1009.38 1008.81 1007.89 1008.09 1007.69 1007.34 1007.21 1006.97 1007.38 1007.43 1006.96 1006.71 1005.72 1005.79 1006.50 1007.05 1007.87 1008.67 1009.47 1010.61 1011.41 1012.20 1012.97 1013.60 1013.94 1014.23
1018.50 1019.29 1020.47 1020.79 1020.13 1017.52 1014.09 1013.33 1013.01 1013.25 1012.56 1011.11 1011.05 1010.83 1011.05 1010.88 1010.66 1009.66 1009.19 1008.94 1008.26 1007.69 1007.96 1007.80 1007.82 1007.94 1007.79 1008.26 1006.83 1007.30 1007.81 1007.51 1007.46 1007.86 1008.11 1008.92 1009.54 1010.35 1011.36 1012.34 1013.08 1013.52 1013.87 1014.45
1018.63 1019.39 1019.58 1019.11 1018.41 1015.27 1013.29 1012.66 1012.81 1013.37 1011.58 1010.63 1010.37 1010.37 1010.81 1010.61 1010.03 1009.34 1009.16 1008.74 1008.24 1007.95 1007.64 1007.58 1008.02 1008.06 1008.86 1008.72 1007.56 1007.61 1008.10 1009.12 1008.69 1008.87 1009.82 1009.97 1010.92 1011.42 1012.37 1012.82 1013.25 1013.78 1014.26 1014.69
1017.75 1018.10 1018.16 1017.65 1016.88 1014.50 1012.07 1012.27 1012.38 1011.25 1011.00 1010.69 1010.67 1010.68 1010.62 1010.38 1010.10 1009.72 1008.84 1008.61 1008.42 1008.22 1008.04 1008.01 1007.67 1007.65 1008.41 1008.80 1007.58 1008.02 1008.67 1009.21 1009.24 1009.66 1010.26 1011.62 1012.20 1012.59 1012.74 1013.17 1014.15 1014.38 1014.62 1014.80
1016.26 1015.48 1015.12 1015.32 1013.34 1011.97 1011.54 1011.18 1011.08 1010.98 1010.94 1010.89 1010.72 1010.39 1010.46 1010.47 1010.07 1009.75 1009.40 1008.68 1008.58 1008.40 1008.25 1008.21 1008.12 1008.00 1007.82 1007.67 1007.75 1007.55 1008.32 1008.64 1009.05 1008.95 1011.14 1012.80 1012.17 1012.99 1013.28 1013.29 1013.70 1014.01 1013.99 1014.02
1014.25 1013.91 1014.00 1013.82 1011.44 1011.22 1010.91 1010.55 1010.64 1010.29 1010.30 1010.32 1010.02 1009.99 1010.19 1010.24 1009.89 1009.46 1009.25 1008.97 1008.58 1008.24 1008.46 1008.53 1008.48 1008.32 1008.08 1007.87 1007.56 1007.85 1008.33 1008.42 1009.60 1010.42 1011.14 1011.73 1012.26 1013.01 1013.04 1012.44 1013.24 1014.11 1014.78 1014.76
1012.82 1012.98 1012.18 1011.19 1010.59 1010.35 1009.82 1009.52 1009.28 1009.22 1009.30 1009.48 1009.31 1009.27 1009.24 1009.45 1009.36 1009.06 1008.98 1008.96 1008.77 1008.04 1008.15 1008.54 1008.58 1008.31 1008.16 1008.02 1007.76 1007.99 1008.53 1009.07 1010.02 1010.93 1011.30 1012.09 1012.16 1013.02 1012.90 1013.20 1014.06 1014.32 1014.16 1014.25
1011.51 1010.81 1010.90 1009.46 1009.29 1009.10 1008.58 1008.46 1008.35 1008.44 1008.36 1008.34 1008.38 1008.30 1008.33 1008.48 1008.56 1008.45 1008.43 1008.49 1008.47 1008.36 1007.68 1008.32 1008.54 1008.58 1008.40 1008.27 1008.53 1008.92 1009.66 1009.83 1010.36 1011.22 1011.63 1012.48 1013.16 1013.51 1013.57 1014.18 1013.47 1013.79 1013.90 1013.36
Wind_Speed
5 4 6 11 8 7 4 3 8 5 6 5 9 6 10 6 23 15 8 10 8 13 9 12 13 15 15 14 16 17 15 12 11 8 9 5 5 3 3 3 6 6 6 6
2 5 10 10 6 6 6 6 7 8 4 6 10 12 10 6 11 24 26 14 13 9 10 10 14 16 19 18 17 17 18 16 13 10 4 5 5 2 3 3 4 5 6 6
8 7 4 7 5 5 5 5 6 11 8 5 9 8 6 7 7 11 14 14 15 20 20 16 17 20 19 20 21 20 19 17 12 11 7 5 5 4 3 1 2 4 6 5
7 7 8 8 7 8 7 9 13 11 3 8 8 7 5 7 10 11 19 12 11 14 18 21 21 20 23 23 18 18 17 17 12 15 10 15 7 6 5 5 3 4 5 5
11 7 7 10 8 8 10 9 11 10 7 2 4 3 10 1 7 10 11 16 18 20 22 23 24 25 26 20 20 17 14 14 15 15 14 12 7 4 4 3 7 4 4 4
8 4 7 12 11 8 6 4 3 5 3 3 17 9 5 5 8 4 8 18 16 17 22 23 24 25 20 17 14 15 18 17 15 14 14 16 17 11 7 5 5 4 2 2
8 5 6 1 6 3 5 5 5 5 1 11 5 5 9 9 10 11 10 12 11 16 20 25 24 20 18 20 20 17 18 17 16 15 13 14 13 12 11 9 6 6 4 2
4 8 8 11 5 7 7 9 8 7 5 7 3 7 10 12 10 8 6 9 7 10 15 21 28 25 23 22 22 21 20 17 16 15 14 10 10 8 6 8 6 6 5 4
7 6 9 3 7 6 6 3 6 5 1 3 5 10 2 0 5 11 8 8 10 12 15 21 22 21 22 23 25 25 21 17 17 17 12 10 10 10 8 8 7 5 5 4
1 6 5 8 5 7 3 5 4 3 5 6 5 5 2 8 11 11 15 13 15 9 9 17 20 24 23 22 20 21 20 20 19 15 12 10 9 7 7 8 8 8 6 6
4 2 7 6 6 4 6 7 6 3 3 5 4 4 5 5 7 9 12 11 10 10 3 6 15 22 23 18 18 19 18 17 16 14 11 11 9 8 7 8 7 7 7 7
4 1 4 3 7 9 12 4 5 3 7 4 2 2 5 2 6 10 13 13 13 12 10 7 5 8 9 13 14 17 16 15 15 14 13 13 10 10 9 7 7 8 8 7
6 3 5 7 4 7 7 13 12 6 3 5 1 5 1 8 10 9 11 12 12 13 13 12 9 6 6 9 9 11 12 12 12 12 14 11 11 11 10 9 8 8 7 7
3 1 4 5 2 3 7 11 9 3 5 8 8 8 16 10 10 10 11 10 12 10 11 12 11 8 6 6 7 11 11 11 12 12 13 13 12 12 10 9 8 8 8 7
5 4 4 6 8 9 12 14 10 11 9 7 10 18 10 12 11 8 5 8 10 13 10 10 11 8 7 8 8 7 6 8 11 11 11 12 11 9 8 8 7 6 5 5
1 3 4 7 9 8 13 15 14 13 15 18 15 15 7 8 9 15 9 5 7 7 7 8 9 10 8 7 6 6 6 5 8 12 14 11 10 9 8 7 6 6 5 5
6 4 3 6 3 3 9 14 16 14 14 9 12 7 5 9 11 11 10 9 4 3 4 4 8 7 5 6 4 5 8 8 7 5 2 5 7 8 7 7 7 7 7 6
7 6 4 5 2 4 8 8 9 13 14 14 17 10 5 6 9 5 3 2 8 7 8 5 5 6 6 4 5 2 4 6 8 7 6 6 6 6 7 7 7 6 5 6
9 6 2 3 4 8 13 7 7 7 15 14 13 10 6 6 6 7 5 6 7 5 5 7 6 5 6 6 3 4 7 7 6 6 7 8 10 8 8 8 7 5 5 3
6 2 5 3 5 10 3 7 7 3 13 17 16 17 11 8 7 7 7 5 2 10 4 4 5 5 5 8 1 8 7 7 7 4 8 7 7 9 9 8 7 3 3 3
3 3 9 8 8 10 8 9 4 6 10 4 3 6 7 5 7 7 3 5 1 1 5 8 3 6 9 6 3 7 9 7 8 11 10 10 8 8 7 6 3 4 3 3
8 4 5 3 5 13 9 2 10 10 2 4 4 4 6 7 7 6 9 4 5 3 2 3 6 3 5 6 4 7 9 7 9 8 10 7 6 4 4 6 2 3 4 5
9 12 6 10 9 4 3 3 5 2 4 5 7 7 7 7 7 7 7 7 5 7 5 3 2 2 5 1 4 5 7 7 7 16 8 0 5 5 6 5 4 1 3 3
6 9 7 5 12 22 22 19 18 17 18 10 10 11 5 9 9 9 7 7 6 4 5 3 4 3 3 2 5 4 6 9 8 9 7 6 5 3 3 5 4 3 1 3
9 4 11 18 17 19 20 15 15 15 13 11 12 13 14 10 12 13 7 7 8 7 4 4 6 5 5 2 3 6 6 8 8 6 5 5 5 4 4 4 2 3 3 4
10 19 12 14 11 10 14 8 9 13 15 13 13 12 10 11 13 10 7 7 6 7 4 6 7 6 4 6 6 6 5 7 8 6 5 4 4 3 4 1 3 4 8 7
Wind_Direction
182 139 192 222 201 196 200 246 253 264 271 320 270 257 262 202 182 224 186 197 185 195 200 177 159 158 153 157 159 158 153 157 147 151 147 142 156 148 115 144 146 136 121 113
27 208 220 203 198 181 194 235 275 283 262 175 272 271 253 211 209 217 251 214 190 154 176 170 171 168 170 165 168 166 167 167 169 160 157 139 135 129 128 148 143 143 133 140
200 230 170 176 236 222 227 203 243 243 297 244 263 290 267 258 212 219 218 217 194 172 175 177 180 183 173 177 180 177 174 171 168 152 123 92 84 72 88 146 158 177 158 147
209 236 214 222 221 175 244 206 236 253 140 255 134 271 270 244 221 204 203 192 185 186 183 181 184 184 189 191 181 179 175 172 169 165 151 160 156 156 189 168 167 163 169 151
236 193 214 226 219 176 232 235 213 231 212 230 219 130 256 308 228 235 234 228 223 181 185 188 189 191 196 183 185 181 173 176 175 175 165 161 153 149 141 138 151 164 169 152
244 226 203 232 238 208 216 281 66 51 113 222 230 181 254 200 219 259 231 244 219 182 191 193 196 194 192 185 179 180 181 183 179 172 166 174 175 158 143 147 154 165 155 164
329 268 287 66 263 258 159 74 305 316 21 234 151 139 224 219 222 231 223 232 226 209 192 191 193 194 190 190 185 181 183 184 182 167 176 175 179 167 158 158 156 152 149 173
351 335 12 344 341 264 211 168 167 222 211 260 230 230 248 217 235 259 258 242 228 201 198 204 190 189 192 189 189 181 183 180 179 172 182 171 154 166 158 158 154 165 156 163
359 280 318 25 336 360 321 166 230 192 245 84 233 281 105 254 1 342 312 301 266 209 202 197 197 201 196 188 188 184 182 183 179 178 169 172 157 156 165 158 148 149 145 154
334 291 301 320 11 28 66 317 5 4 189 228 269 270 263 0 344 338 343 331 313 298 233 201 193 195 197 199 192 182 181 180 179 167 167 160 157 147 152 149 151 155 150 158
358 168 307 355 45 311 1 14 338 285 149 201 192 258 346 316 341 359 359 344 337 339 325 227 211 196 195 187 183 180 180 171 168 159 150 146 155 154 150 156 149 159 154 165
334 76 310 305 334 41 78 39 42 56 307 296 246 206 269 280 23 26 17 3 9 357 348 6 120 140 171 178 175 173 173 169 165 160 153 159 152 148 149 156 164 162 173 176
325 351 331 344 12 30 25 18 5 310 237 244 333 243 106 25 17 29 29 2 11 15 18 21 34 66 138 147 154 158 164 159 154 152 159 150 153 157 166 174 173 175 174 182
39 97 146 190 293 286 296 335 345 23 285 333 262 348 345 1 12 0 7 13 0 0 22 37 27 27 82 100 145 157 158 157 156 157 159 161 167 176 175 175 183 182 183 180
122 212 201 229 243 269 287 300 298 285 265 261 298 314 324 338 338 335 326 349 11 357 7 43 42 16 45 69 74 90 108 137 150 156 161 173 169 166 164 176 184 181 164 154
19 261 205 254 230 249 271 271 276 265 266 268 268 286 352 352 358 347 328 317 343 338 4 8 63 50 30 55 93 106 121 147 174 170 180 173 159 161 173 163 155 137 147 147
170 157 102 263 211 257 275 246 243 242 227 245 249 243 24 328 338 326 313 323 20 320 0 25 19 57 38 47 65 92 161 158 165 177 110 152 152 159 155 133 141 150 150 144
162 140 157 267 53 250 238 206 228 255 265 270 274 262 208 273 291 299 307 319 348 13 39 17 52 15 352 351 18 64 71 163 158 149 114 116 106 109 117 125 133 127 131 142
186 138 230 166 204 281 285 219 220 221 263 267 260 254 251 231 266 279 267 303 102 352 26 49 11 30 346 335 10 35 60 71 112 131 141 141 144 144 138 131 134 139 131 107
122 128 150 138 191 229 185 203 199 158 267 240 244 244 254 221 214 222 206 276 40 119 63 52 49 360 26 312 49 81 33 87 67 62 116 105 110 127 121 130 132 112 106 176
194 198 211 226 234 269 244 228 148 164 244 265 203 190 215 221 213 227 177 235 236 338 124 139 131 99 317 297 98 99 94 58 84 76 49 57 68 93 95 99 87 126 163 201
188 217 211 224 224 276 213 141 188 214 206 291 289 230 205 231 265 274 289 185 230 234 304 271 140 131 186 248 117 134 129 159 101 58 100 97 87 68 92 113 167 176 180 193
254 206 214 192 216 235 217 227 287 275 260 228 250 238 231 239 250 251 271 274 224 245 204 219 240 254 174 170 186 174 137 127 125 120 92 254 105 139 163 145 143 141 45 38
242 231 235 266 222 246 258 261 258 263 271 273 241 265 236 222 248 248 242 272 274 212 199 226 203 221 230 264 135 124 128 106 110 113 122 127 118 105 71 79 68 62 254 269
243 209 234 249 266 273 262 242 244 254 250 238 239 245 252 240 239 235 232 230 247 239 168 176 208 207 236 165 96 102 106 113 109 110 116 110 98 88 67 65 153 218 247 216
246 251 246 257 255 248 259 240 228 240 245 239 238 249 241 234 234 232 213 229 254 253 181 184 193 214 227 122 102 99 113 120 119 97 92 116 126 136 128 166 349 305 255 295